sat.trackr.live / text

‹ back to catalog

COSMOS 2573

NORAD 58614 · 2023-201A

PAYLOAD ACTIVE UNKNOWN

§ Identity

Operator
Country
CIS
Launch date
2023-12-21
Launch site
PLMSC
Launch vehicle
Mass (kg)
RCS (m²)

External: N2YO · Heavens-Above · Gunter

§ Orbital elements

Epoch: 2026-05-25T05:09:04.482144Z

Period
94.44 min
Inclination
97.6260°
Eccentricity
0.0003063
Mean motion
15.24697633 rev/d
Perigee alt
489.6 km
Apogee alt
493.8 km
Semi-major
6,869.8 km
B*
1.3713e-4
RAAN
94.2365°
Arg perigee
96.9256°
Mean anomaly
263.2329°
Rev number
13,498

§ Raw data

COSMOS 25731 58614U 23201A   26145.21463521  .00003316  00000+0  13713-3 0  99942 58614  97.6260  94.2365 0003063  96.9256 263.2329 15.24697633134982

JSON: /api/v1/satellites/58614 · /tle

For live sub-satellite position, see the globe view (requires WebGL).

§ Visibility from observer

Set your observer location to see the next 7 days of passes ≥ 10°. The values pass through the URL so the page stays shareable.

No JS? Fill the form by hand. The geolocation button needs JavaScript.